Location: �chenoz-la-M�line
(47.6009°N, 6.1354°E)
Time: 23:04:53
(UTC+00:00)

STARLINK-2097 - Pass Details

Date: 14 May 2021
Orbit: 546 x 548 km, 53.1° (Epoch: 16 June)

Event Time Altitude Azimuth Distance (km) Brightness Sun altitude
Rises 21:08:59 0° 287° (WNW) 2,715 8.0 -16.2°
Reaches altitude 10° 21:12:08 10° 262° (W) 1,817 6.6 -16.5°
Maximum altitude 21:14:15 14° 231° (SW) 1,579 5.9 -16.7°
Enters shadow 21:15:38 12° 209° (SSW) 1,679 5.8 -16.9°
